When you browse on this site, cookies collect data to enhance your experience and personalize the content and advertising you see.
Visit our Privacy Policy to learn more. By continuing to use the site, you agree to this use of cookies and data.
  • In Germany
  • List of Countries
  • For 7 days
  • Water Temperature
  • Satellite Maps
  • Weather Map
  • Weather Widgets
  • user-avatar
    Login

    Hourly Weather Polotsk

    Today, 23 May, Thursday

    Time Temperature Precipitation Wind Pressure Humidity
    00:00 +16°C° 0 mm 1 mps 741 mmHg 86%
    01:00 +15°C° 0 mm 1 mps 741 mmHg 87%
    02:00 +15°C° 0 mm 2 mps 741 mmHg 89%
    03:00 +15°C° 0 mm 2 mps 742 mmHg 90%
    04:00 +15°C° 0 mm 2 mps 742 mmHg 90%
    05:00 +15°C° 0 mm 2 mps 742 mmHg 90%
    06:00 +16°C° 0 mm 2 mps 742 mmHg 85%
    07:00 +18°C° 0 mm 2 mps 742 mmHg 80%
    08:00 +20°C° 0 mm 2 mps 742 mmHg 74%
    09:00 +21°C° 0.2 mm 2 mps 742 mmHg 68%
    10:00 +22°C° 0.2 mm 3 mps 742 mmHg 62%
    11:00 +25°C° 0.2 mm 3 mps 742 mmHg 56%
    12:00 +25°C° 0.4 mm 3 mps 742 mmHg 57%
    13:00 +25°C° 0.4 mm 3 mps 742 mmHg 59%
    14:00 +25°C° 0.4 mm 3 mps 741 mmHg 60%
    15:00 +25°C° 0.4 mm 3 mps 741 mmHg 62%
    16:00 +25°C° 0.4 mm 3 mps 741 mmHg 63%
    17:00 +25°C° 0.4 mm 2 mps 741 mmHg 65%
    18:00 +23°C° 0.4 mm 2 mps 741 mmHg 71%
    19:00 +21°C° 0.4 mm 2 mps 741 mmHg 78%
    20:00 +20°C° 0.4 mm 1 mps 741 mmHg 85%
    21:00 +19°C° 0 mm 1 mps 741 mmHg 87%
    22:00 +18°C° 0 mm 1 mps 741 mmHg 88%
    23:00 +18°C° 0 mm 1 mps 741 mmHg 90%

    Tomorrow, 24 May, Friday

    Time Temperature Precipitation Wind Pressure Humidity
    00:00 +16°C° 0 mm 1 mps 741 mmHg 91%
    01:00 +16°C° 0 mm 1 mps 742 mmHg 92%
    02:00 +15°C° 0 mm 1 mps 742 mmHg 94%
    03:00 +16°C° 0 mm 1 mps 742 mmHg 94%
    04:00 +16°C° 0 mm 1 mps 742 mmHg 94%
    05:00 +16°C° 0 mm 1 mps 742 mmHg 95%
    06:00 +18°C° 0 mm 1 mps 742 mmHg 91%
    07:00 +20°C° 0 mm 1 mps 742 mmHg 86%
    08:00 +21°C° 0 mm 1 mps 742 mmHg 82%
    09:00 +22°C° 1.1 mm 1 mps 742 mmHg 79%
    10:00 +22°C° 1.1 mm 1 mps 742 mmHg 77%
    11:00 +23°C° 1.1 mm 2 mps 742 mmHg 74%
    12:00 +23°C° 0.5 mm 2 mps 742 mmHg 73%
    13:00 +23°C° 0.5 mm 2 mps 742 mmHg 72%
    14:00 +24°C° 0.5 mm 2 mps 742 mmHg 70%
    15:00 +23°C° 1.3 mm 2 mps 742 mmHg 75%
    16:00 +21°C° 1.3 mm 2 mps 742 mmHg 79%
    17:00 +21°C° 1.3 mm 2 mps 741 mmHg 83%
    18:00 +21°C° 0.5 mm 1 mps 741 mmHg 86%
    19:00 +20°C° 0.5 mm 1 mps 741 mmHg 88%
    20:00 +19°C° 0.5 mm 1 mps 741 mmHg 91%
    21:00 +18°C° 0.4 mm 1 mps 741 mmHg 92%
    22:00 +16°C° 0.4 mm 1 mps 741 mmHg 93%
    23:00 +16°C° 0.4 mm 1 mps 741 mmHg 95%

    Day after tomorrow, 25 May, Saturday

    Time Temperature Precipitation Wind Pressure Humidity
    00:00 +15°C° 0 mm 1 mps 741 mmHg 95%
    01:00 +14°C° 0 mm 2 mps 741 mmHg 96%
    02:00 +14°C° 0 mm 2 mps 741 mmHg 96%
    03:00 +13°C° 0 mm 2 mps 741 mmHg 95%
    04:00 +13°C° 0 mm 2 mps 741 mmHg 94%
    05:00 +12°C° 0 mm 3 mps 741 mmHg 93%
    06:00 +13°C° 0 mm 3 mps 741 mmHg 88%
    07:00 +14°C° 0 mm 3 mps 741 mmHg 83%
    08:00 +16°C° 0 mm 3 mps 741 mmHg 77%
    09:00 +17°C° 0 mm 3 mps 741 mmHg 69%
    10:00 +19°C° 0 mm 3 mps 740 mmHg 61%
    11:00 +20°C° 0 mm 3 mps 740 mmHg 53%
    12:00 +21°C° 0 mm 3 mps 740 mmHg 52%
    13:00 +21°C° 0 mm 3 mps 740 mmHg 51%
    14:00 +22°C° 0 mm 3 mps 740 mmHg 50%
    15:00 +21°C° 0.3 mm 3 mps 739 mmHg 57%
    16:00 +20°C° 0.3 mm 4 mps 739 mmHg 63%
    17:00 +20°C° 0.3 mm 4 mps 739 mmHg 70%
    18:00 +18°C° 0.1 mm 4 mps 739 mmHg 74%
    19:00 +16°C° 0.1 mm 3 mps 739 mmHg 79%
    20:00 +14°C° 0.1 mm 3 mps 739 mmHg 83%
    21:00 +13°C° 0 mm 3 mps 739 mmHg 85%
    22:00 +11°C° 0 mm 3 mps 740 mmHg 87%
    23:00 +10°C° 0 mm 3 mps 740 mmHg 88%

    26 May, Sunday

    Time Temperature Precipitation Wind Pressure Humidity
    00:00 +9°C° 0 mm 3 mps 740 mmHg 90%
    01:00 +9°C° 0 mm 3 mps 740 mmHg 92%
    02:00 +8°C° 0 mm 3 mps 740 mmHg 94%
    03:00 +8°C° 0 mm 3 mps 740 mmHg 93%
    04:00 +8°C° 0 mm 3 mps 740 mmHg 93%
    05:00 +8°C° 0 mm 3 mps 740 mmHg 92%
    06:00 +9°C° 0 mm 3 mps 740 mmHg 86%
    07:00 +10°C° 0 mm 3 mps 740 mmHg 81%
    08:00 +11°C° 0 mm 4 mps 739 mmHg 76%
    09:00 +12°C° 0 mm 4 mps 739 mmHg 75%
    10:00 +12°C° 0 mm 4 mps 739 mmHg 75%
    11:00 +13°C° 0 mm 4 mps 739 mmHg 74%
    12:00 +13°C° 0.1 mm 4 mps 739 mmHg 74%
    13:00 +13°C° 0.1 mm 4 mps 739 mmHg 74%
    14:00 +13°C° 0.1 mm 4 mps 739 mmHg 75%
    15:00 +13°C° 0.5 mm 4 mps 738 mmHg 79%
    16:00 +12°C° 0.5 mm 4 mps 738 mmHg 82%
    17:00 +12°C° 0.5 mm 5 mps 738 mmHg 86%
    18:00 +11°C° 0.8 mm 4 mps 738 mmHg 89%
    19:00 +10°C° 0.8 mm 4 mps 738 mmHg 91%
    20:00 +9°C° 0.8 mm 3 mps 738 mmHg 94%
    21:00 +8°C° 0.1 mm 3 mps 738 mmHg 94%
    22:00 +8°C° 0.1 mm 3 mps 738 mmHg 94%
    23:00 +7°C° 0.1 mm 3 mps 738 mmHg 94%

    27 May, Monday

    Time Temperature Precipitation Wind Pressure Humidity
    00:00 +7°C° 0 mm 3 mps 738 mmHg 94%
    01:00 +5°C° 0 mm 3 mps 738 mmHg 94%
    02:00 +5°C° 0 mm 4 mps 738 mmHg 94%
    03:00 +5°C° 0 mm 4 mps 739 mmHg 95%
    04:00 +4°C° 0 mm 4 mps 739 mmHg 95%
    05:00 +4°C° 0 mm 4 mps 739 mmHg 96%
    06:00 +5°C° 0 mm 4 mps 740 mmHg 91%
    07:00 +7°C° 0 mm 4 mps 741 mmHg 86%
    08:00 +8°C° 0 mm 4 mps 741 mmHg 82%
    09:00 +8°C° 0 mm 4 mps 742 mmHg 81%
    10:00 +10°C° 0 mm 4 mps 742 mmHg 80%
    11:00 +10°C° 0 mm 4 mps 743 mmHg 79%
    12:00 +12°C° 0 mm 4 mps 743 mmHg 75%
    13:00 +13°C° 0 mm 4 mps 743 mmHg 70%
    14:00 +15°C° 0 mm 4 mps 743 mmHg 66%
    15:00 +15°C° 0 mm 4 mps 744 mmHg 67%
    16:00 +15°C° 0 mm 4 mps 744 mmHg 67%
    17:00 +15°C° 0 mm 4 mps 744 mmHg 68%
    18:00 +14°C° 0 mm 3 mps 744 mmHg 73%
    19:00 +13°C° 0 mm 3 mps 744 mmHg 78%
    20:00 +13°C° 0 mm 2 mps 744 mmHg 84%
    21:00 +12°C° 0 mm 3 mps 744 mmHg 86%
    22:00 +11°C° 0 mm 3 mps 744 mmHg 89%
    23:00 +10°C° 0 mm 3 mps 744 mmHg 92%

    28 May, Tuesday

    Time Temperature Precipitation Wind Pressure Humidity
    00:00 +10°C° 0 mm 3 mps 744 mmHg 91%
    01:00 +11°C° 0 mm 3 mps 744 mmHg 90%
    02:00 +11°C° 0 mm 4 mps 744 mmHg 88%
    03:00 +11°C° 0 mm 4 mps 744 mmHg 88%
    04:00 +11°C° 0 mm 4 mps 745 mmHg 88%
    05:00 +11°C° 0 mm 4 mps 745 mmHg 88%
    06:00 +12°C° 0 mm 3 mps 745 mmHg 84%
    07:00 +13°C° 0 mm 3 mps 745 mmHg 81%
    08:00 +16°C° 0 mm 3 mps 745 mmHg 78%
    09:00 +17°C° 0 mm 3 mps 745 mmHg 72%
    10:00 +19°C° 0 mm 3 mps 746 mmHg 67%
    11:00 +21°C° 0 mm 3 mps 746 mmHg 62%
    12:00 +22°C° 0.1 mm 3 mps 745 mmHg 59%
    13:00 +24°C° 0.1 mm 3 mps 745 mmHg 57%
    14:00 +23°C° 0.1 mm 4 mps 745 mmHg 55%
    15:00 +22°C° 0 mm 4 mps 745 mmHg 58%
    16:00 +22°C° 0 mm 4 mps 744 mmHg 60%
    17:00 +21°C° 0 mm 4 mps 744 mmHg 63%
    18:00 +19°C° 0.7 mm 3 mps 744 mmHg 74%
    19:00 +18°C° 0.7 mm 3 mps 744 mmHg 85%
    20:00 +16°C° 0.7 mm 3 mps 743 mmHg 96%
    21:00 +16°C° 0.6 mm 3 mps 743 mmHg 96%
    22:00 +15°C° 0.6 mm 4 mps 742 mmHg 96%
    23:00 +15°C° 0.6 mm 4 mps 742 mmHg 95%
    Show more